This demonstration page uses our WeatherBlox Daily Observations layout. Learn more.

Left ArrowRight Arrow

Hourly Observations for February 20, 2016

Temp ( °F °C ) Dew Point ( °F °C ) Humidity (%) Winds ( mph kmh ) Pressure ( in mb ) Visibility ( mi km ) Precip ( " mm )
12:15 am 00:15 Clear 45 7 25 -4 46 46 WSW 6 9 29.94 1014 10 16 0.00 0.00
12:35 am 00:35 Clear 45 7 25 -4 46 46 WSW 6 9 29.94 1014 10 16 0.00 0.00
12:55 am 00:55 Clear 45 7 25 -4 46 46 W 7 11 29.94 1014 10 16 0.00 0.00
1:15 am 01:15 Clear 45 7 23 -5 42 42 W 6 9 29.94 1014 10 16 0.00 0.00
1:35 am 01:35 Clear 39 4 25 -4 56 56 NNW 6 9 29.94 1014 10 16 0.00 0.00
1:55 am 01:55 Clear 39 4 25 -4 56 56 NW 7 11 30.00 1016 10 16 0.00 0.00
2:15 am 02:15 Clear 37 3 27 -3 65 65 NW 7 11 30.00 1016 10 16 0.00 0.00
2:35 am 02:35 Clear 36 2 25 -4 65 65 WNW 8 13 30.00 1016 10 16 0.00 0.00
2:55 am 02:55 Clear 36 2 25 -4 65 65 NW 6 9 30.00 1016 10 16 0.00 0.00
3:15 am 03:15 Clear 36 2 25 -4 65 65 Calm 29.97 1015 10 16 0.00 0.00
3:35 am 03:35 Clear 36 2 27 -3 70 70 NW 7 11 29.97 1015 10 16 0.00 0.00
3:55 am 03:55 Clear 36 2 27 -3 70 70 Calm 29.97 1015 10 16 0.00 0.00
4:15 am 04:15 Clear 34 1 27 -3 75 75 Calm 29.97 1015 10 16 0.00 0.00
4:35 am 04:35 Clear 34 1 25 -4 70 70 NNW 3 6 29.97 1015 10 16 0.00 0.00
4:55 am 04:55 Clear 32 0 27 -3 80 80 Calm 30.03 1017 10 16 0.00 0.00
5:15 am 05:15 Clear 32 0 25 -4 75 75 WNW 8 13 30.03 1017 10 16 0.00 0.00
5:35 am 05:35 Clear 32 0 25 -4 75 75 WNW 7 11 30.03 1017 10 16 0.00 0.00
5:55 am 05:55 Clear 32 0 25 -4 75 75 WNW 10 17 30.03 1017 10 16 0.00 0.00
6:15 am 06:15 Clear 30 -1 25 -4 80 80 WNW 9 15 30.03 1017 10 16 0.00 0.00
6:35 am 06:35 Clear 32 0 25 -4 75 75 WNW 9 15 30.03 1017 10 16 0.00 0.00
6:55 am 06:55 Clear 30 -1 25 -4 80 80 WNW 8 13 30.03 1017 10 16 0.00 0.00
7:15 am 07:15 Clear 30 -1 25 -4 80 80 NNW 10 17 30.06 1018 10 16 0.00 0.00
7:35 am 07:35 Sunny 30 -1 25 -4 80 80 WNW 10 17 30.06 1018 10 16 0.00 0.00
7:55 am 07:55 Sunny 30 -1 25 -4 80 80 NW 7 11 30.06 1018 10 16 0.00 0.00
8:15 am 08:15 Sunny 34 1 27 -3 75 75 NW 12 19 30.09 1019 10 16 0.00 0.00
8:35 am 08:35 Sunny 36 2 27 -3 70 70 NW 9 15 30.06 1018 10 16 0.00 0.00
8:55 am 08:55 Sunny 37 3 27 -3 65 65 NW 7 11 30.06 1018 10 16 0.00 0.00
9:15 am 09:15 Sunny 39 4 27 -3 61 61 NW 8 13 30.06 1018 10 16 0.00 0.00
9:35 am 09:35 Sunny 43 6 28 -2 57 57 NW 8 13 30.06 1018 10 16 0.00 0.00
9:55 am 09:55 Sunny 45 7 30 -1 57 57 NW 9 15 30.06 1018 10 16 0.00 0.00
10:15 am 10:15 Sunny 48 9 30 -1 50 50 NW 8 13 30.03 1017 10 16 0.00 0.00
10:35 am 10:35 Sunny 50 10 28 -2 43 43 NNW 8 13 30.03 1017 10 16 0.00 0.00
10:55 am 10:55 Sunny 54 12 28 -2 38 38 NNW 6 9 29.97 1015 10 16 0.00 0.00
11:15 am 11:15 Sunny 54 12 27 -3 35 35 NNW 3 6 29.97 1015 10 16 0.00 0.00
11:35 am 11:35 Sunny 55 13 28 -2 36 36 NNW 3 6 29.97 1015 10 16 0.00 0.00
11:55 am 11:55 Sunny 57 14 27 -3 31 31 NW 7 11 30.00 1016 10 16 0.00 0.00
12:15 pm 12:15 Sunny 57 14 27 -3 31 31 N 9 15 29.97 1015 10 16 0.00 0.00
12:35 pm 12:35 Sunny 59 15 28 -2 31 31 NNE 9 15 29.97 1015 10 16 0.00 0.00
12:55 pm 12:55 Sunny 61 16 28 -2 29 29 NNE 10 17 29.91 1013 10 16 0.00 0.00
1:15 pm 13:15 Sunny 59 15 28 -2 31 31 NNE 8 13 29.94 1014 10 16 0.00 0.00
1:35 pm 13:35 Sunny 61 16 28 -2 29 29 E 12 19 29.91 1013 10 16 0.00 0.00
1:55 pm 13:55 Sunny 59 15 30 -1 34 34 ENE 7 11 29.94 1014 10 16 0.00 0.00
2:15 pm 14:15 Sunny 57 14 28 -2 33 33 ENE 8 13 29.94 1014 10 16 0.00 0.00
2:35 pm 14:35 Sunny 59 15 30 -1 34 34 ENE 10 17 29.94 1014 10 16 0.00 0.00
2:55 pm 14:55 Sunny 59 15 30 -1 34 34 ENE 9 15 29.94 1014 10 16 0.00 0.00
3:15 pm 15:15 Sunny 59 15 30 -1 34 34 ENE 8 13 29.94 1014 10 16 0.00 0.00
3:35 pm 15:35 Sunny 59 15 30 -1 34 34 ESE 7 11 29.94 1014 10 16 0.00 0.00
3:55 pm 15:55 Sunny 59 15 30 -1 34 34 ENE 8 13 29.94 1014 3 4 0.00 0.00
4:15 pm 16:15 Sunny 57 14 30 -1 36 36 ENE 8 13 29.97 1015 9 14 0.00 0.00
4:35 pm 16:35 Sunny 57 14 32 0 39 39 ENE 8 13 29.97 1015 6 10 0.00 0.00
4:55 pm 16:55 Sunny 55 13 34 1 44 44 undefined N/A 29.97 1015 10 16 0.00 0.00
5:15 pm 17:15 Sunny 55 13 34 1 44 44 ENE 9 15 29.97 1015 10 16 0.00 0.00
5:35 pm 17:35 Sunny 54 12 36 2 51 51 ENE 9 15 29.97 1015 3 4 0.00 0.00
5:55 pm 17:55 Sunny 52 11 36 2 54 54 ENE 10 17 30.00 1016 2 3 0.00 0.00
6:15 pm 18:15 Sunny 48 9 34 1 58 58 ENE 10 17 30.00 1016 7 11 0.00 0.00
6:35 pm 18:35 Clear 46 8 34 1 62 62 ENE 9 15 30.03 1017 9 14 0.00 0.00
6:55 pm 18:55 Mostly Clear 46 8 34 1 62 62 NE 8 13 30.03 1017 10 16 0.00 0.00
7:15 pm 19:15 Clear 45 7 34 1 66 66 undefined N/A 30.06 1018 10 16 0.00 0.00
7:35 pm 19:35 Clear 43 6 34 1 71 71 undefined N/A 30.06 1018 10 16 0.00 0.00
7:55 pm 19:55 Clear 43 6 34 1 71 71 undefined N/A 30.09 1019 9 14 0.00 0.00
8:15 pm 20:15 Clear 43 6 32 0 66 66 Calm 30.09 1019 10 16 0.00 0.00
8:35 pm 20:35 Mostly Clear 41 5 34 1 76 76 N 5 7 30.12 1020 10 16 0.00 0.00
8:55 pm 20:55 Partly Cloudy 39 4 34 1 81 81 N 7 11 30.15 1021 10 16 0.00 0.00
9:15 pm 21:15 Mostly Cloudy 39 4 32 0 75 75 NNW 10 17 30.18 1022 10 16 0.00 0.00
9:35 pm 21:35 Mostly Clear 43 6 34 1 71 71 NNW 10 17 30.21 1023 10 16 0.00 0.00
9:55 pm 21:55 Clear 43 6 34 1 71 71 NNW 7 11 30.21 1023 10 16 0.00 0.00
10:15 pm 22:15 Clear 39 4 30 -1 70 70 N 6 9 30.18 1022 10 16 0.00 0.00
10:35 pm 22:35 Partly Cloudy 37 3 32 0 81 81 NE 3 6 30.18 1022 10 16 0.00 0.00
10:55 pm 22:55 Mostly Clear 39 4 32 0 75 75 undefined N/A 30.15 1021 10 16 0.00 0.00
11:15 pm 23:15 Mostly Clear 37 3 32 0 81 81 SSE 7 11 30.15 1021 10 16 0.00 0.00
11:35 pm 23:35 Mostly Cloudy 37 3 34 1 87 87 SSE 10 17 30.12 1020 10 16 0.00 0.00
11:55 pm 23:55 Partly Cloudy 37 3 34 1 87 87 S 9 15 30.12 1020 10 16 0.00 0.00

Powered by AerisWeather